SCP
0 0 0 0 0 0 0 0 0 0 0 0 0 0 0 0 0 0 0 0 0 0 0 0 0 0 0 0 0 0 0 0 0 0 0 0 0 0 0 0 0 0 0 0 0 0 0 0 0
0 0 0 0 0 0 0 0 0 0 0 0 0 0 0 0 0 0 0 0 0 0 0 0 0 0 0 0 0 0 0 0 0 0 0 0 0 0 0 0 0 0 0 0 0 0 0 0 0
0 0 0 0 0 0 0 0 0 0 0 0 0 0 0 0 0 0 0 0 0 0 0 0 0 0 0 0 0 0 0 0 0 0 0 0 0 0 0 0 0 0 0 0 0 0 0 0 0
0 0 0 0 0 0 0 0 0 0 0 0 0 0 0 0 0 0 0 0 0 0 0 0 0 0 0 0 0 0 0 0 0 0 0 0 0 0 0 0 0 0 0 0 0 0 0 0 0
0 0 0 0 0 0 0 0 0 0 0 0 0 0 0 0 0 0 0 0 0 0 0 0 0 0 0 0 0 0 0 0 0 0 0 0 0 0 0 0 0 0 0 0 0 0 0 0 0
0 0 0 0 0 0 0 0 0 0 0 0 0 0 0 0 0 0 0 0 0 0 0 0 0 0 0 0 0 0 0 0 0 0 0 0 0 0 0 0 0 0 0 0 0 0 0 0 0
0 0 0 0 0 0 0 0 0 0 0 0 0 0 0 0 0 0 0 0 0 0 0 0 0 0 0 0 0 0 0 0 0 0 0 0 0 0 0 0 0 0 0 0 0 0 0 0 0
0 0 0 0 0 0 0 0 0 0 0 0 0 0 0 0 0 0 0 0 0 0 0 0 0 0 0 0 0 0 0 0 0 0 0 0 0 0 0 0 0 0 0 0 0 0 0 0 0
0 0 0 0 0 0 0 0 0 0 0 0 0 0 0 0 0 0 0 0 0 0 0 0 0 0 0 0 0 0 0 0 0 0 0 0 0 0 0 0 0 0 0 0 0 0 0 0 0
0 0 0 0 0 0 0 0 0 0 0 0 0 0 0 0 0 0 0 0 0 0 0 0 0 0 0 0 0 0 0 0 0 0 0 0 0 0 0 0 0 0 0 0 0 0 0 0 0
0 0 0 0 0 0 0 0 0 0 0 0 0 0 0 0 0 0 0 0 0 0 0 0 0 0 0 0 0 0 0 0 0 0 0 0 0 0 0 0 0 0 0 0 0 0 0 0 0
0 0 0 0 0 0 0 0 0 0 0 0 0 0 0 0 0 0 0 0 0 0 0 0 0 0 0 0 0 0 0 0 0 0 0 0 0 0 0 0 0 0 0 0 0 0 0 0 0
0 0 0 0 0 0 0 0 0 0 0 0 0 0 0 0 0 0 0 0 0 0 0 0 0 0 0 0 0 0 0 0 0 0 0 0 0 0 0 0 0 0 0 0 0 0 0 0 0
0 0 0 0 0 0 0 0 0 0 0 0 0 0 0 0 0 0 0 0 0 0 0 0 0 0 0 0 0 0 0 0 0 0 0 0 0 0 0 0 0 0 0 0 0 0 0 0 0
0 0 0 0 0 0 0 0 0 0 0 0 0 0 0 0 0 0 0 0 0 0 0 0 0 0 0 0 0 0 0 0 0 0 0 0 0 0 0 0 0 0 0 0 0 0 0 0 0
0 0 0 0 0 0 0 0 0 0 0 0 0 0 0 0 0 0 0 0 0 0 0 0 0 0 0 0 0 0 0 0 0 0 0 0 0 0 0 0 0 0 0 0 0 0 0 0 0
0 0 0 0 0 0 0 0 0 0 0 0 0 0 0 0 0 0 0 0 0 0 0 0 0 0 0 0 0 0 0 0 0 0 0 0 0 0 0 0 0 0 0 0 0 0 0 0 0
0 0 0 0 0 0 0 0 0 0 0 0 0 0 0 0 0 0 0 0 0 0 0 0 0 0 0 0 0 0 0 0 0 0 0 0 0 0 0 0 0 0 0 0 0 0 0 0 0
0 0 0 0 0 0 0 0 0 0 0 0 0 0 0 0 0 0 0 0 0 0 0 0 0 0 0 0 0 0 0 0 0 0 0 0 0 0 0 0 0 0 0 0 0 0 0 0 0
0 0 0 0 0 0 0 0 0 0 0 0 0 0 0 0 0 0 0 0 0 0 0 0 0 0 0 0 0 0 0 0 0 0 0 0 0 0 0 0 0 0 0 0 0 0 0 0 0
0 0 0 0 0 0 0 0 0 0 0 0 0 0 0 0 0 0 0 0 0 0 0 0 0 0 0 0 0 0 0 0 0 0 0 0 0 0 0 0 0 0 0 0 0 0 0 0 0
0 0 0 0 0 0 0 0 0 0 0 0 0 0 0 0 0 0 0 0 0 0 0 0 0 0 0 0 0 0 0 0 0 0 0 0 0 0 0 0 0 0 0 0 0 0 0 0 0
0 0 0 0 0 0 0 0 0 0 0 0 0 0 0 0 0 0 0 0 0 0 0 0 0 0 0 0 0 0 0 0 0 0 0 0 0 0 0 0 0 0 0 0 0 0 0 0 0
0 0 0 0 0 0 0 0 0 0 0 0 0 0 0 0 0 0 0 0 0 0 0 0 0 0 0 0 0 0 0 0 0 0 0 0 0 0 0 0 0 0 0 0 0 0 0 0 0
0 0 0 0 0 0 0 0 0 0 0 0 0 0 0 0 0 0 0 0 0 0 0 0 0 0 0 0 0 0 0 0 0 0 0 0 0 0 0 0 0 0 0 0 0 0 0 0 0
0 0 0 0 0 0 0 0 0 0 0 0 0 0 0 0 0 0 0 0 0 0 0 0 0 0 0 0 0 0 0 0 0 0 0 0 0 0 0 0 0 0 0 0 0 0 0 0 0
0 0 0 0 0 0 0 0 0 0 0 0 0 0 0 0 0 0 0 0 0 0 0 0 0 0 0 0 0 0 0 0 0 0 0 0 0 0 0 0 0 0 0 0 0 0 0 0 0
0 0 0 0 0 0 0 0 0 0 0 0 0 0 0 0 0 0 0 0 0 0 0 0 0 0 0 0 0 0 0 0 0 0 0 0 0 0 0 0 0 0 0 0 0 0 0 0 0
0 0 0 0 0 0 0 0 0 0 0 0 0 0 0 0 0 0 0 0 0 0 0 0 0 0 0 0 0 0 0 0 0 0 0 0 0 0 0 0 0 0 0 0 0 0 0 0 0
0 0 0 0 0 0 0 0 0 0 0 0 0 0 0 0 0 0 0 0 0 0 0 0 0 0 0 0 0 0 0 0 0 0 0 0 0 0 0 0 0 0 0 0 0 0 0 0 0
Wind_Speed
13 10 6 2 2 3 5 2 3 5 5 5 6 5 6 7 6 7 2 5 5 5 6 7 9 9 10 10 10 10 9 9 9 9 9 10 10 10 10 11 10 11 10 10 10 10 10 10 9
10 7 3 3 3 4 3 2 4 5 6 4 4 4 5 6 7 6 3 4 5 6 6 6 8 10 10 10 11 11 10 10 9 9 9 9 9 10 10 10 11 11 10 10 10 10 10 10 9
9 6 3 3 3 3 0 4 7 7 6 4 3 6 6 5 6 4 3 3 5 6 6 6 8 9 10 10 11 11 10 9 9 9 8 9 9 9 9 9 10 10 10 10 10 10 10 10 9
4 3 3 3 4 1 1 4 6 7 4 3 4 6 6 6 4 4 3 3 5 6 6 6 8 9 9 9 10 10 10 10 9 9 8 8 8 8 8 8 9 10 10 10 10 10 9 9 9
3 3 3 4 4 1 3 5 4 4 4 2 3 5 5 5 6 5 4 5 6 6 6 5 8 8 8 8 9 9 9 9 9 9 8 8 8 8 8 8 8 9 9 9 9 9 9 9 8
3 3 3 5 4 2 2 2 2 3 3 2 3 4 5 5 6 5 4 5 5 6 5 5 7 8 8 8 8 8 9 8 8 8 8 8 7 7 7 7 7 7 7 8 8 8 8 8 8
3 3 4 4 2 2 2 2 2 3 3 3 2 4 5 5 5 4 4 5 6 6 5 4 4 5 7 8 7 8 8 8 8 8 8 8 8 7 7 7 7 7 7 7 7 7 7 7 7
3 3 3 4 4 2 2 2 4 4 4 4 4 3 4 4 4 4 4 5 6 6 5 4 4 4 3 4 6 6 7 7 7 8 8 7 7 7 7 6 6 6 6 6 6 6 6 6 6
3 2 3 3 2 1 4 3 3 4 5 4 5 6 6 7 5 4 4 4 5 5 5 5 5 4 3 3 4 4 5 6 6 5 7 5 2 3 4 5 6 6 6 6 6 6 5 5 6
1 2 2 3 3 2 3 2 2 2 4 3 4 6 7 6 5 4 3 4 4 4 4 4 4 5 4 3 3 2 2 3 3 2 3 2 2 2 4 4 6 5 5 5 5 6 4 3 2
1 1 1 4 5 4 2 2 1 2 1 2 4 5 5 5 4 3 3 3 3 3 4 4 3 3 4 3 2 2 1 2 2 3 3 2 3 2 2 2 2 2 3 2 3 3 2 2 2
2 1 2 2 4 2 1 2 1 2 2 3 4 5 5 4 3 3 3 3 3 3 3 3 3 3 3 3 2 2 2 2 2 2 3 2 2 2 2 2 2 1 1 2 2 1 2 3 4
2 1 1 2 2 2 1 1 1 2 2 2 4 4 4 3 2 2 3 3 3 3 3 3 3 3 3 3 2 2 2 2 2 2 3 4 2 2 2 2 2 2 1 1 2 2 2 2 3
2 2 1 0 0 0 1 1 1 2 2 2 3 3 3 3 3 2 2 2 2 2 2 2 2 3 3 2 2 2 2 1 2 2 3 4 3 2 2 2 2 2 2 2 1 2 2 2 2
2 1 1 3 3 2 2 3 4 3 3 3 2 3 3 3 3 2 2 2 2 2 2 2 2 2 3 3 2 2 2 2 2 2 3 4 4 3 3 2 2 3 3 3 2 2 2 2 2
3 3 3 3 4 3 3 5 3 4 4 3 3 3 3 3 3 2 2 2 1 2 2 2 2 2 2 2 2 2 2 2 2 2 2 4 4 4 3 2 2 3 3 3 2 1 1 2 2
4 4 4 2 4 2 4 3 3 3 3 4 3 3 3 3 3 2 2 2 1 1 2 2 2 2 2 1 1 1 1 2 2 2 2 3 3 4 3 2 2 3 3 3 3 2 2 2 2
3 4 3 2 2 2 5 4 3 3 4 4 3 3 3 3 3 3 2 2 2 2 2 2 2 1 1 1 1 1 2 2 2 2 2 3 3 3 3 2 3 3 2 3 3 3 2 2 2
4 4 4 2 1 3 5 6 5 5 4 4 3 3 3 2 2 2 2 2 2 2 2 2 1 1 1 1 1 1 1 1 1 1 2 3 3 3 3 2 3 3 2 3 3 2 2 2 2
4 4 3 2 1 3 4 7 5 5 5 4 4 3 3 2 2 2 3 3 2 1 1 1 1 1 1 1 1 1 1 1 1 1 2 2 2 2 3 2 2 2 2 2 3 3 2 2 2
3 4 3 3 3 3 4 6 6 5 5 4 3 3 3 3 2 2 2 2 1 1 1 1 1 1 1 1 1 1 1 1 1 1 1 1 2 2 2 2 2 2 2 2 2 2 2 2 2
3 3 3 3 2 3 3 5 5 5 5 5 4 3 3 2 2 2 2 2 1 1 1 1 1 1 1 1 1 0 0 1 1 1 1 1 1 1 2 2 2 1 1 2 2 2 2 1 2
1 3 3 4 4 4 4 4 5 3 5 5 4 3 2 2 2 2 2 2 1 2 1 1 1 1 1 1 1 0 1 1 1 1 0 1 1 1 2 2 2 2 1 1 2 2 2 1 1
0 1 2 2 1 4 5 5 5 3 4 3 3 3 3 3 3 2 2 2 2 2 1 1 1 1 1 1 1 1 1 1 1 1 1 1 0 1 1 2 2 2 2 2 2 1 1 1 2
1 1 1 1 2 5 3 4 5 1 1 2 2 2 3 3 3 3 3 2 2 2 1 1 1 1 1 1 1 1 1 1 1 1 1 1 1 1 1 2 2 2 2 2 2 2 1 1 1
3 1 2 3 3 3 2 5 3 1 2 2 1 0 1 2 3 3 2 2 1 1 1 0 0 0 1 1 1 1 1 1 1 1 1 1 1 1 1 1 1 2 2 3 2 1 2 1 1
2 2 1 1 3 3 5 3 1 0 1 1 1 0 1 1 2 2 2 2 2 1 1 1 1 0 0 0 1 1 1 1 1 1 1 1 1 1 1 1 2 2 2 2 2 1 1 1 2
1 0 1 1 2 4 5 4 3 2 2 1 1 1 1 0 1 1 2 2 1 1 1 1 0 0 0 0 1 1 1 1 1 1 1 1 1 1 1 1 2 2 2 2 2 2 1 2 2
3 2 2 2 3 3 4 4 1 1 1 1 1 1 1 1 1 1 1 1 1 1 1 1 1 1 1 0 0 1 1 1 1 1 1 1 1 2 2 2 2 2 2 2 2 2 2 2 2
3 3 4 3 4 3 3 5 2 3 3 2 2 2 2 1 1 1 1 1 1 1 1 1 1 1 0 0 0 0 1 1 1 1 1 1 1 2 2 2 2 2 2 2 2 3 2 2 3
Wind_Direction
299 274 254 255 245 229 241 237 84 76 57 40 30 39 52 39 32 93 106 45 54 66 73 55 37 42 45 47 47 50 53 55 56 55 52 51 51 50 48 52 57 58 59 59 56 55 54 50 48
293 284 268 244 245 233 226 170 87 73 81 66 38 40 69 71 66 86 64 38 59 70 70 60 42 45 47 47 47 48 52 53 54 54 52 49 51 51 50 50 54 55 55 55 56 55 52 48 44
274 270 258 237 242 250 293 85 96 86 84 84 68 35 45 53 63 66 50 45 65 70 68 61 48 48 49 49 47 45 46 48 48 49 52 50 50 50 50 51 53 53 52 53 54 52 50 46 42
273 245 244 246 245 282 38 91 100 113 93 71 97 86 74 43 49 66 68 58 72 72 72 64 52 49 50 51 48 45 44 44 44 46 49 49 49 48 46 48 52 50 49 50 51 49 46 43 39
250 250 232 232 238 252 55 81 95 105 118 101 94 99 88 73 73 74 64 62 70 70 74 73 53 49 46 48 49 42 39 42 44 45 46 47 46 44 43 48 51 49 48 47 47 46 42 39 34
256 251 234 229 213 170 113 91 94 99 102 96 80 97 99 90 76 65 57 64 71 71 73 75 55 47 43 44 48 46 41 41 42 42 42 41 41 42 42 47 48 47 46 46 44 42 40 35 28
274 256 250 246 221 189 126 101 105 98 92 63 38 87 111 81 74 73 68 69 68 68 67 67 59 49 41 37 40 44 43 42 40 38 35 34 34 37 41 44 45 43 43 42 40 39 35 29 22
296 285 255 248 229 199 106 77 46 51 69 41 29 83 119 105 97 86 76 72 66 59 56 51 49 48 41 40 38 42 44 41 37 33 27 26 27 29 30 37 38 40 41 39 35 33 30 23 15
286 259 251 264 251 143 113 96 56 60 83 58 48 53 94 113 110 94 77 67 63 55 47 43 36 33 30 34 36 34 41 38 33 28 19 19 26 26 26 32 30 34 36 35 30 23 22 15 5
249 240 255 339 4 91 111 102 113 131 105 100 89 86 104 113 111 100 85 69 59 52 44 42 35 28 22 23 26 17 32 37 38 29 14 1 19 22 30 28 25 22 22 23 19 6 4 0 347
214 249 330 3 22 62 85 87 85 167 158 146 142 128 121 119 111 105 94 82 71 63 51 41 40 35 26 18 20 10 22 26 32 27 7 16 33 26 28 23 17 11 18 15 5 353 349 358 353
200 9 11 15 21 47 78 90 28 2 45 55 96 123 126 122 119 110 94 88 80 71 63 48 44 43 35 23 16 19 21 21 27 18 15 23 34 28 16 12 359 347 17 358 345 343 359 3 355
207 195 44 44 45 42 68 114 73 51 52 68 101 114 126 130 122 110 94 91 91 82 67 53 42 41 37 31 16 25 25 18 26 31 19 22 29 20 10 358 2 353 5 359 338 346 1 4 354
112 109 104 95 71 280 175 224 194 161 149 137 133 137 143 141 131 107 94 90 91 88 82 62 51 42 39 32 24 32 28 23 31 33 26 25 22 17 12 358 358 0 349 341 349 350 352 355 355
124 135 211 212 207 195 198 232 212 180 174 174 177 159 151 144 125 115 96 80 76 89 88 67 49 42 41 34 19 31 29 35 36 29 29 29 22 13 11 2 357 349 342 337 353 5 2 354 1
210 210 218 195 188 177 205 241 174 158 175 184 186 173 159 132 124 121 101 88 67 82 86 78 42 43 43 39 25 38 34 34 35 35 32 28 20 11 10 6 356 342 342 342 345 5 14 3 8
208 229 231 198 183 159 219 240 154 157 195 197 195 186 164 148 143 138 119 101 88 87 94 87 67 53 40 37 41 58 50 40 40 41 38 24 20 13 11 2 351 347 349 345 343 1 12 12 6
232 247 251 218 188 235 244 241 197 200 218 212 202 192 177 177 171 145 128 115 92 78 82 80 66 54 44 35 31 51 46 35 43 43 40 33 18 8 11 1 355 355 351 345 354 360 6 9 353
301 280 287 330 18 270 253 252 223 203 220 221 209 201 189 178 140 134 128 118 103 78 74 77 67 48 36 21 7 22 14 9 24 35 38 31 18 5 13 8 356 357 354 343 346 350 4 2 357
290 282 292 307 306 280 269 264 242 206 206 211 213 200 186 171 173 138 129 116 103 95 79 79 68 55 43 26 5 356 347 355 6 31 37 27 14 3 9 17 358 352 349 345 351 348 348 337 352
271 278 285 293 308 267 290 275 232 212 199 203 215 193 176 182 184 153 128 115 109 93 81 51 42 57 60 41 41 15 10 4 14 6 360 6 2 5 4 3 3 354 355 332 333 338 349 325 323
268 313 310 294 282 257 215 278 242 206 198 206 208 199 184 171 167 157 156 139 141 115 78 67 58 50 54 49 38 12 335 323 321 312 322 343 357 359 359 352 354 354 349 338 326 340 330 324 311
330 338 306 274 265 283 242 252 260 197 217 217 207 197 171 162 164 169 164 144 123 107 91 52 63 44 32 22 356 326 329 332 336 337 321 322 337 354 356 349 344 338 327 325 318 323 331 319 305
339 313 291 261 256 263 230 220 262 215 213 195 191 191 179 167 162 159 141 118 102 88 90 69 60 27 23 11 347 344 359 343 340 332 309 302 313 333 341 338 335 325 320 311 302 295 301 300 304
300 84 6 314 240 248 236 224 247 209 66 134 176 196 190 166 158 156 149 151 132 109 96 69 49 10 6 357 346 344 341 324 305 309 303 316 314 316 295 329 318 311 308 303 301 290 280 278 285
233 206 185 240 253 284 262 234 236 94 61 81 103 108 202 157 156 160 162 162 143 127 121 118 297 322 345 350 343 337 345 341 330 329 307 289 284 291 279 296 297 299 300 308 301 286 274 275 275
205 229 296 294 281 273 253 237 270 175 25 117 135 142 259 173 150 156 155 154 154 157 168 180 224 288 328 349 337 335 346 352 329 315 315 297 304 305 306 291 289 292 291 295 294 275 273 274 269
291 179 124 196 250 265 264 241 233 210 248 251 232 244 260 183 150 158 162 166 174 172 166 170 196 284 280 262 278 322 326 322 321 312 310 308 309 316 297 282 285 296 296 292 294 288 279 283 280
186 196 212 233 246 248 277 272 358 96 182 214 277 272 231 221 186 186 152 131 141 146 170 201 208 235 251 222 261 316 315 319 322 312 312 324 313 304 291 286 288 287 285 289 293 290 288 282 288
226 209 183 198 244 238 265 271 6 41 43 29 356 344 345 358 142 139 131 110 116 154 188 194 222 251 250 243 277 287 308 316 320 318 324 329 309 290 290 288 284 291 294 290 289 290 282 274 279